M0NPQ Weather Reports


time (UTC)temp
C
wind
direction
speed
KPH
gust
KPH
rain 1hr
cm
rain 24hr
cm
rain mn
cm
humidity
%
barometer
mb
20260507113603 13 271 1.6 9.7 0.00 0.00 0.00 59 1017.1
20260507112703 13 172 1.6 4.8 0.00 0.00 0.00 58 1017.1
20260507112017 13 332 1.6 6.4 0.00 0.00 0.00 59 1017.1
20260507110904 12 261 1.6 4.8 0.00 0.00 0.00 62 1017.2
20260507110003 12 221 1.6 6.4 0.00 0.00 0.00 62 1017.2
20260507105403 12 272 1.6 6.4 0.00 0.00 0.00 63 1017.2
20260507104503 13 52 0.0 4.8 0.00 0.00 0.00 62 1017.2
20260507103603 12 244 1.6 4.8 0.00 0.00 0.00 63 1017.2
20260507102917 12 256 1.6 4.8 0.00 0.00 0.00 62 1017.4
20260507101804 12 262 0.0 3.2 0.00 0.00 0.00 65 1017.1
20260507101120 12 278 1.6 3.2 0.00 0.00 0.00 64 1017.1
20260507100003 12 291 0.0 3.2 0.00 0.00 0.00 64 1017.1
20260507095403 12 27 0.0 3.2 0.00 0.00 0.00 64 1017.0
20260507094503 12 110 0.0 3.2 0.00 0.00 0.00 65 1017.0
20260507093603 11 105 0.0 3.2 0.00 0.00 0.00 65 1017.2
20260507092703 11 251 0.0 3.2 0.00 0.00 0.00 66 1017.1
20260507091803 11 257 0.0 3.2 0.00 0.00 0.00 66 1016.9
20260507090903 11 251 0.0 3.2 0.00 0.00 0.00 65 1017.1
20260507090004 11 272 0.0 3.2 0.00 0.00 0.00 65 1016.9
20260507085616 12 266 0.0 3.2 0.00 0.00 0.00 64 1016.8
20260507084503 12 252 0.0 3.2 0.00 0.00 0.00 64 1016.8
20260507083603 11 261 0.0 1.6 0.00 0.00 0.00 66 1016.7
20260507082704 11 101 0.0 3.2 0.00 0.00 0.00 65 1016.7
20260507081804 11 208 0.0 3.2 0.00 0.00 0.00 66 1016.6
20260507080903 11 265 0.0 1.6 0.00 0.00 0.00 67 1016.5
20260507080005 11 266 0.0 1.6 0.00 0.00 0.00 68 1016.5
20260507075403 11 0 0.0 0.0 0.00 0.00 0.00 69 1016.5
20260507074503 11 272 0.0 1.6 0.00 0.00 0.00 68 1016.5
20260507073603 11 0 0.0 0.0 0.00 0.00 0.00 67 1016.3
20260507072705 11 0 0.0 0.0 0.00 0.00 0.00 68 1016.3
20260507071803 10 0 0.0 0.0 0.00 0.00 0.00 67 1016.1
20260507070903 10 265 0.0 1.6 0.00 0.00 0.00 67 1016.1
20260507070005 10 11 0.0 1.6 0.00 0.00 0.00 68 1016.2
20260507065403 10 282 0.0 1.6 0.00 0.00 0.00 68 1016.3
20260507064719 10 86 0.0 1.6 0.00 0.00 0.00 69 1016.1
20260507063603 10 0 0.0 0.0 0.00 0.00 0.00 69 1016.1
20260507062703 10 261 0.0 3.2 0.00 0.00 0.00 70 1016.2
20260507062017 10 209 0.0 3.2 0.00 0.00 0.00 71 1016.1
20260507060903 10 241 0.0 1.6 0.00 0.00 0.00 70 1015.9
20260507060004 10 0 0.0 0.0 0.00 0.00 0.00 71 1016.0
20260507055404 9 233 0.0 1.6 0.00 0.00 0.00 72 1015.9
20260507054505 9 0 0.0 0.0 0.00 0.00 0.00 72 1015.9
20260507053603 9 0 0.0 0.0 0.00 0.00 0.00 73 1016.0
20260507052703 9 0 0.0 0.0 0.00 0.00 0.00 73 1015.9
20260507051803 9 0 0.0 0.0 0.00 0.00 0.00 73 1015.8
20260507050903 9 0 0.0 0.0 0.00 0.00 0.00 73 1015.7
20260507050217 9 0 0.0 0.0 0.00 0.00 0.00 73 1015.9
20260507045403 9 0 0.0 0.0 0.00 0.00 0.00 73 1015.7
20260507044503 9 0 0.0 0.0 0.00 0.00 0.00 74 1015.6
20260507043603 8 0 0.0 0.0 0.00 0.00 0.00 74 1015.5
20260507042705 8 0 0.0 0.0 0.00 0.00 0.00 74 1015.5
20260507041805 8 0 0.0 0.0 0.00 0.00 0.00 74 1015.4
20260507040903 8 262 0.0 1.6 0.00 0.00 0.00 74 1015.3
20260507040005 8 0 0.0 0.0 0.00 0.00 0.00 74 1015.3
20260507035403 8 249 0.0 1.6 0.00 0.00 0.00 74 1015.3
20260507034503 8 0 0.0 0.0 0.00 0.00 0.00 73 1015.1
20260507033603 8 0 0.0 0.0 0.00 0.00 0.00 73 1014.9
20260507032704 8 0 0.0 0.0 0.00 0.00 0.00 73 1015.1
20260507032018 8 0 0.0 0.0 0.00 0.00 0.00 73 1015.1
20260507030903 8 0 0.0 1.6 0.00 0.00 0.00 72 1015.0
20260507030003 9 122 0.0 1.6 0.00 0.00 0.00 72 1014.9
20260507025404 9 228 0.0 1.6 0.00 0.00 0.00 72 1015.0
20260507024503 9 228 0.0 1.6 0.00 0.00 0.00 72 1015.2
20260507023603 9 0 0.0 0.0 0.00 0.00 0.00 73 1015.2
20260507022704 9 100 0.0 1.6 0.00 0.00 0.00 72 1015.1
20260507021805 9 0 0.0 0.0 0.00 0.00 0.00 72 1015.1
20260507020903 9 0 0.0 0.0 0.00 0.00 0.00 72 1015.2
20260507020218 9 0 0.0 0.0 0.00 0.00 0.00 72 1015.2
20260507015403 9 111 0.0 1.6 0.00 0.00 0.00 72 1015.2
20260507014503 9 282 0.0 1.6 0.00 0.00 0.00 72 1014.8
20260507013816 9 268 0.0 1.6 0.00 0.00 0.00 72 1015.0
20260507012703 9 0 0.0 0.0 0.00 0.00 0.00 72 1015.1
20260507011804 9 0 0.0 0.0 0.00 0.00 0.00 72 1015.0
20260507010903 9 0 0.0 0.0 0.00 0.00 0.00 72 1015.1
20260507010003 9 0 0.0 0.0 0.00 0.00 0.00 72 1014.8
20260507005404 9 275 0.0 1.6 0.00 0.00 0.00 73 1014.9
20260507004717 9 0 0.0 0.0 0.00 0.00 0.00 73 1014.9
20260507003603 9 270 0.0 1.6 0.00 0.00 0.00 72 1014.9
20260507002703 9 269 0.0 1.6 0.00 0.00 0.00 72 1014.9
20260507001804 9 149 0.0 1.6 0.00 0.00 0.00 72 1014.9
20260507001118 9 320 0.0 1.6 0.00 0.00 0.00 73 1015.0
20260507000005 9 90 0.0 1.6 0.00 0.00 0.00 74 1015.1
20260506235405 9 283 0.0 1.6 0.00 0.00 0.00 74 1014.9
20260506234503 9 59 0.0 1.6 0.00 0.00 0.00 74 1014.9
20260506233603 10 1 0.0 3.2 0.00 0.00 0.00 74 1014.9
20260506232705 10 294 0.0 3.2 0.00 0.00 0.00 73 1015.0
20260506231803 10 286 0.0 3.2 0.00 0.00 0.00 73 1014.9
20260506231118 10 270 0.0 3.2 0.00 0.00 0.00 73 1015.0
20260506230219 10 235 0.0 1.6 0.00 0.00 0.00 73 1015.0
20260506225403 10 253 0.0 1.6 0.00 0.00 0.00 73 1015.0
20260506224503 10 265 0.0 1.6 0.00 0.00 0.00 73 1015.0
20260506223604 10 275 0.0 1.6 0.00 0.00 0.00 74 1014.9
20260506222703 10 0 0.0 0.0 0.00 0.00 0.00 74 1014.8
20260506221803 10 229 0.0 1.6 0.00 0.00 0.00 74 1014.9
20260506220903 10 245 0.0 1.6 0.00 0.00 0.00 73 1014.8
20260506220003 10 0 0.0 0.0 0.00 0.00 0.00 73 1014.8
20260506215403 10 0 0.0 0.0 0.00 0.00 0.00 73 1014.6
20260506214503 10 284 0.0 1.6 0.00 0.00 0.00 72 1014.6
20260506213817 10 290 0.0 1.6 0.00 0.00 0.00 72 1014.7
20260506212918 10 279 0.0 1.6 0.00 0.00 0.00 71 1014.5
20260506211803 10 310 0.0 3.2 0.00 0.00 0.00 71 1014.7
20260506210905 10 237 0.0 3.2 0.00 0.00 0.00 73 1014.5
20260506210005 10 269 0.0 1.6 0.00 0.00 0.00 72 1014.6
20260506205618 10 0 0.0 0.0 0.00 0.00 0.00 72 1014.4
20260506204503 10 131 0.0 1.6 0.00 0.00 0.00 73 1014.5
20260506203603 10 79 0.0 1.6 0.00 0.00 0.00 73 1014.5
20260506202704 10 79 0.0 1.6 0.00 0.00 0.00 72 1014.5
20260506201803 10 259 0.0 3.2 0.00 0.00 0.00 71 1014.4
20260506201116 10 260 0.0 1.6 0.00 0.00 0.00 70 1014.2
20260506200003 10 265 0.0 3.2 0.00 0.00 0.00 71 1014.3
20260506195403 10 273 0.0 3.2 0.00 0.00 0.00 71 1014.3
20260506194717 10 272 0.0 3.2 0.00 0.00 0.00 71 1014.2
20260506193605 10 265 0.0 1.6 0.00 0.00 0.00 71 1014.2
20260506192705 10 255 0.0 3.2 0.00 0.00 0.00 71 1014.3
20260506191804 10 286 0.0 1.6 0.00 0.00 0.00 71 1014.0
20260506190903 10 353 0.0 3.2 0.00 0.00 0.00 71 1013.8
20260506190003 10 249 0.0 3.2 0.00 0.00 0.00 71 1013.6
20260506185403 10 240 0.0 3.2 0.00 0.00 0.00 71 1013.6
20260506184503 10 254 0.0 3.2 0.00 0.00 0.00 72 1013.7
20260506183603 10 258 0.0 3.2 0.00 0.00 0.00 72 1013.5
20260506182705 11 267 0.0 3.2 0.00 0.00 0.00 72 1013.2
20260506181803 11 230 0.0 3.2 0.00 0.00 0.00 71 1013.4
20260506181118 11 240 0.0 3.2 0.00 0.00 0.00 71 1013.3
20260506180004 11 84 0.0 3.2 0.00 0.00 0.00 71 1013.0
20260506175403 11 291 0.0 1.6 0.00 0.00 0.00 71 1013.1
20260506174504 11 74 0.0 3.2 0.00 0.00 0.00 70 1013.0
20260506173605 11 45 0.0 1.6 0.00 0.00 0.00 70 1012.9
20260506172703 11 227 0.0 1.6 0.00 0.00 0.00 71 1012.8
20260506171805 11 264 0.0 4.8 0.00 0.00 0.00 70 1013.0
20260506171118 12 269 0.0 3.2 0.00 0.00 0.00 70 1012.7
20260506170003 12 69 0.0 3.2 0.00 0.00 0.00 69 1012.9
20260506165403 12 67 0.0 3.2 0.00 0.00 0.00 68 1012.8
20260506164503 12 68 0.0 3.2 0.00 0.00 0.00 67 1012.9
20260506163604 12 78 0.0 3.2 0.00 0.00 0.00 66 1012.9
20260506162703 12 94 0.0 4.8 0.00 0.00 0.00 67 1012.8
20260506161803 12 93 0.0 6.4 0.00 0.00 0.00 67 1012.6
20260506160903 12 57 0.0 6.4 0.00 0.00 0.00 68 1012.6
20260506160003 13 355 1.6 4.8 0.00 0.00 0.00 64 1012.7
20260506155405 14 68 1.6 6.4 0.00 0.00 0.00 62 1012.6
20260506154503 15 78 0.0 3.2 0.00 0.00 0.00 61 1012.8
20260506153603 15 69 1.6 3.2 0.00 0.00 0.00 63 1012.7
20260506152704 14 74 1.6 4.8 0.00 0.00 0.00 63 1012.6
20260506151803 14 17 0.0 3.2 0.00 0.00 0.00 61 1012.4
20260506150903 15 23 0.0 4.8 0.00 0.00 0.00 61 1012.6
20260506150005 14 288 1.6 9.7 0.00 0.00 0.00 63 1012.5
20260506145403 14 265 1.6 9.7 0.00 0.00 0.00 62 1012.6
20260506144503 15 303 0.0 4.8 0.00 0.00 0.00 62 1012.5
20260506143818 14 61 0.0 6.4 0.00 0.00 0.00 62 1012.7
20260506142703 14 203 0.0 4.8 0.00 0.00 0.00 59 1012.6
20260506141803 14 39 0.0 4.8 0.00 0.00 0.00 64 1012.6
20260506140904 14 73 0.0 3.2 0.00 0.00 0.00 64 1012.6
20260506140005 13 44 0.0 3.2 0.00 0.00 0.00 64 1012.4
20260506135403 13 54 0.0 6.4 0.00 0.00 0.00 65 1012.6
20260506134503 13 37 0.0 3.2 0.00 0.00 0.00 63 1012.7
20260506133818 13 252 0.0 3.2 0.00 0.00 0.00 63 1012.4
20260506132703 13 44 0.0 4.8 0.00 0.00 0.00 66 1012.6
20260506131803 13 70 0.0 3.2 0.00 0.00 0.00 67 1012.4
20260506130905 13 268 0.0 6.4 0.00 0.00 0.00 67 1012.3
20260506130003 13 153 0.0 3.2 0.00 0.00 0.00 67 1012.3
20260506125403 13 266 0.0 3.2 0.00 0.00 0.00 67 1012.2
20260506124503 13 299 0.0 3.2 0.00 0.00 0.00 68 1012.3
20260506123605 13 289 0.0 3.2 0.00 0.00 0.00 66 1012.2
20260506122703 13 251 0.0 3.2 0.00 0.00 0.00 65 1012.2
20260506121803 13 242 0.0 1.6 0.00 0.00 0.00 68 1012.3
20260506120904 12 265 0.0 3.2 0.00 0.00 0.00 69 1012.2
20260506120003 12 276 0.0 3.2 0.00 0.00 0.00 68 1012.0
20260506115403 13 282 0.0 3.2 0.00 0.00 0.00 67 1012.1
20260506114503 13 281 0.0 1.6 0.00 0.00 0.00 68 1012.1